Flag for Germany Weather past 2 weeks in Weil am Rhein, Baden-Württemberg, Germany

Now
92 °F

Partly sunny.


Feels Like: 95 °F
Forecast: 69 / 94 °F
Wind: 3 mph from East

Location: Bale-Mulhouse

Current Time: Jul 2, 2015 at 9:26:14 PM

Latest Report: Jul 2, 2015 at 8:00 PM


Visibility: 22 mi

Pressure: 30.03 "Hg

Humidity: 42%

Dew point: 66 °F

Location of Weil am RheinLocation

Historic Weather in Weil am Rhein — Graph

°F

Weil am Rhein temperature yesterday

Maximum temperature yesterday: 93 °F (at 6:00 PM)
Minimum temperature yesterday: 58 °F (at 5:00 AM)
Average temperature yesterday: 77 °F

Past Weeks' High & Low Weather Summary

 TemperatureHumidityPressure
High96 °F (Jul 2, 4:00 PM)98% (Jun 24, 5:00 AM)30.23 "Hg (Jun 24, 5:00 AM)
Low45 °F (Jun 24, 6:00 AM)28% (Jun 26, 3:00 PM)29.75 "Hg (Jun 22, 10:00 PM)
Average66 °F70%30.09 "Hg
* Reported Jun 17 8:00 PM — Jul 2 8:00 PM, Weil am Rhein, Weather by CustomWeather, © 2015

Note: Actual official high and low records may vary slightly from our data, if they occured in-between our weather recording intervals... More about our weather records

Advertising

Weil am Rhein weather history for previous 24 hours

 ConditionsComfort  
Time TempWeatherWind HumidityBarometerVisibility
8:00 PM
Thu, Jul 2
92 °FPartly sunny.3 mph42%30.03 "Hg22 mi
7:00 PM95 °FScattered clouds.7 mph37%30.03 "Hg22 mi
6:00 PM96 °FScattered clouds.7 mph34%30.02 "Hg19 mi
5:00 PM96 °FPartly sunny.7 mph34%30.02 "Hg19 mi
4:00 PM96 °FPartly sunny.8 mph36%30.02 "Hg19 mi
3:00 PM95 °FPassing clouds.8 mph38%30.03 "Hg19 mi
2:00 PM95 °FPassing clouds.6 mph37%30.04 "Hg19 mi
1:00 PM92 °FPassing clouds.6 mph40%30.06 "Hg19 mi
12:00 PM90 °FPassing clouds.5 mph45%30.06 "Hg19 mi
11:00 AM87 °FSunny.3 mph46%30.07 "Hg19 mi
10:00 AM83 °FSunny.6 mph53%30.09 "Hg22 mi
9:00 AM79 °FWarm.7 mph56%30.09 "Hg22 mi
8:00 AM74 °FPassing clouds.5 mph64%30.10 "Hg22 mi
7:00 AM70 °FSunny.5 mph74%30.10 "Hg19 mi
6:00 AM68 °FSunny.5 mph79%30.10 "Hg19 mi
5:00 AM68 °FClear.7 mph79%30.10 "Hg19 mi
4:00 AM68 °FMild.5 mph79%30.09 "Hg16 mi
3:00 AM68 °FMild.3 mph80%30.09 "Hg22 mi
2:00 AM72 °FMild.6 mph72%30.06 "Hg22 mi
1:00 AM71 °FMild.2 mph78%30.06 "Hg22 mi
12:00 AM70 °FClear.No wind82%30.05 "Hg19 mi
11:00 PM
Wed, Jul 1
72 °FClear.2 mph81%30.05 "Hg19 mi
10:00 PM75 °FClear.3 mph74%30.02 "Hg22 mi
9:00 PM84 °FSunny.1 mph59%29.98 "Hg22 mi
Weather by CustomWeather, © 2015

See weather overviewHow to use our weather pages